Location: New Canada
(47.1017°N, 68.5042°W)
Time: 12:19:36
(UTC+00:00)

N. Korean satellite - Pass Details

Date: 04 December 2022
Orbit: 407 x 441 km, 97.3° (Epoch: 05 February)

Event Time Altitude Azimuth Distance (km) Brightness Sun altitude
Rises 21:41:57 0° 195° (SSW) 2,450 10.7 -9.3°
Reaches altitude 10° 21:44:14 10° 209° (SSW) 1,595 10.0 -9.7°
Maximum altitude 21:47:04 24° 265° (W) 1,003 9.1 -10.1°
Drops below altitude 10° 21:49:58 10° 321° (NW) 1,629 9.5 -10.6°
Sets 21:52:19 0° 336° (NNW) 2,518 10.2 -11.0°
